DW8871 Weather Reports


Display with metric or nautical units.
time (UTC)temp
F
wind
direction
speed
MPH
gust
MPH
rain 1hr
in
rain 24hr
in
rain mn
in
humidity
%
barometer
mb
20260904140034 80 282 4.0 9.0 0.00 0.00 0.00 77 1014.9
20260904140028 80 268 5.0 7.0 0.00 0.00 0.00 78 1013.8
20260904134536 78 265 3.0 8.0 0.00 0.00 0.00 81 1014.8
20260904133037 77 260 2.0 7.0 0.00 0.00 0.00 83 1014.8
20260904131533 76 0 1.0 8.0 0.00 0.00 0.00 84 1014.6
20260904130036 75 270 1.0 4.0 0.00 0.00 0.00 86 1014.5
20260904130018 75 270 2.0 3.0 0.00 0.00 0.00 86 1013.4
20260904124542 74 278 0.0 2.0 0.00 0.00 0.00 86 1014.4
20260904123040 74 278 1.0 3.0 0.00 0.00 0.00 86 1014.3
20260904121535 74 0 0.0 3.0 0.00 0.00 0.00 86 1014.0
20260904120033 73 277 1.0 2.0 0.00 0.00 0.00 86 1013.9
20260904120025 74 277 1.0 2.0 0.00 0.00 0.00 87 1012.8
20260904114543 74 254 1.0 4.0 0.00 0.00 0.00 86 1013.6
20260904113035 74 0 0.0 4.0 0.00 0.00 0.00 86 1013.4
20260904111542 74 267 1.0 4.0 0.00 0.00 0.00 85 1013.3
20260904110037 74 265 1.0 6.0 0.00 0.00 0.00 85 1013.4
20260904110035 74 265 1.0 5.0 0.00 0.00 0.00 85 1012.3
20260904104536 74 277 2.0 4.0 0.00 0.00 0.00 84 1013.4
20260904103038 75 0 0.0 5.0 0.00 0.00 0.00 83 1013.3
20260904101539 75 265 2.0 4.0 0.00 0.00 0.00 83 1013.2
20260904100036 75 271 1.0 4.0 0.00 0.00 0.00 83 1012.9
20260904100024 75 312 2.0 4.0 0.00 0.00 0.00 84 1012.1
20260904094538 74 292 0.0 6.0 0.00 0.00 0.00 85 1012.9
20260904093033 74 271 1.0 3.0 0.00 0.00 0.00 86 1012.6
20260904091535 73 0 0.0 2.0 0.00 0.00 0.00 86 1012.5
20260904090037 74 281 0.0 1.0 0.00 0.00 0.00 87 1011.5
20260904090034 73 0 0.0 1.0 0.00 0.00 0.00 86 1012.4
20260904084534 74 281 0.0 0.0 0.00 0.00 0.00 86 1012.3
20260904083036 74 0 0.0 1.0 0.00 0.00 0.00 86 1012.4
20260904081536 74 0 0.0 1.0 0.00 0.00 0.00 85 1012.2
20260904080036 74 0 0.0 2.0 0.00 0.00 0.00 84 1012.2
20260904080030 75 281 0.0 0.0 0.00 0.00 0.00 85 1011.2
20260904074540 75 0 0.0 1.0 0.00 0.00 0.00 84 1012.2
20260904073039 75 0 0.0 1.0 0.00 0.00 0.00 84 1012.2
20260904071537 76 0 0.0 0.0 0.00 0.00 0.00 83 1012.3
20260904070041 77 281 0.0 0.0 0.00 0.00 0.00 83 1011.3
20260904070033 76 0 0.0 0.0 0.00 0.00 0.00 83 1012.3
20260904064538 77 0 0.0 0.0 0.00 0.00 0.00 80 1012.5
20260904063049 77 0 0.0 1.0 0.00 0.00 0.00 79 1012.5
20260904061537 77 0 0.0 2.0 0.00 0.00 0.00 80 1012.5
20260904060058 77 281 0.0 1.0 0.00 0.00 0.00 81 1012.4
20260904060029 77 281 0.0 1.0 0.00 0.00 0.00 81 1011.4
20260904054536 77 0 0.0 1.0 0.00 0.00 0.00 80 1012.5
20260904053036 76 0 0.0 1.0 0.00 0.00 0.00 82 1012.4
20260904051534 76 0 0.0 1.0 0.00 0.00 0.00 82 1012.3
20260904050033 76 0 0.0 0.0 0.00 0.00 0.00 83 1012.3
20260904050023 77 281 0.0 0.0 0.00 0.00 0.00 83 1011.1
20260904044547 76 0 0.0 3.0 0.00 0.00 0.00 82 1012.2
20260904043037 76 0 0.0 0.0 0.00 0.00 0.00 84 1012.2
20260904041535 77 0 0.0 0.0 0.00 0.00 0.00 82 1011.9
20260904040039 77 0 0.0 0.0 0.00 0.00 0.00 82 1012.0
20260904040017 78 281 0.0 0.0 0.00 0.00 0.00 82 1010.9
20260904034544 78 0 0.0 0.0 0.00 0.00 0.00 80 1012.0
20260904033038 78 0 0.0 1.0 0.00 0.00 0.00 80 1011.9
20260904031533 78 0 0.0 1.0 0.00 0.00 0.00 80 1011.9
20260904030035 79 0 0.0 0.0 0.00 0.00 0.00 80 1011.9
20260904030021 79 281 0.0 0.0 0.00 0.00 0.00 80 1010.8
20260904024536 79 0 0.0 1.0 0.00 0.00 0.00 81 1011.6
20260904023036 79 0 0.0 1.0 0.00 0.00 0.00 80 1011.7
20260904021536 80 0 0.0 0.0 0.00 0.00 0.00 76 1011.5
20260904020039 81 0 0.0 0.0 0.00 0.00 0.00 75 1011.4
20260904020035 81 281 0.0 0.0 0.00 0.00 0.00 75 1010.4
20260904014542 82 0 0.0 0.0 0.00 0.00 0.00 72 1011.2
20260904013035 83 0 0.0 0.0 0.00 0.00 0.00 69 1011.0
20260904011538 85 0 0.0 0.0 0.00 0.00 0.00 65 1010.7
20260904010050 86 0 0.0 0.0 0.00 0.00 0.00 63 1010.4
20260904010024 87 281 0.0 0.0 0.00 0.00 0.00 64 1009.5
20260904004554 88 0 0.0 1.0 0.00 0.00 0.00 60 1010.5
20260904003035 90 0 0.0 1.0 0.00 0.00 0.00 58 1010.4
20260904001537 91 0 0.0 3.0 0.00 0.00 0.00 53 1010.5
20260904000038 93 245 2.0 6.0 0.00 0.00 0.00 49 1009.5
20260904000035 93 248 2.0 7.0 0.00 0.00 0.00 49 1010.4
20260903234541 94 278 2.0 9.0 0.00 0.00 0.00 47 1010.4
20260903233036 94 239 2.0 8.0 0.00 0.00 0.00 47 1010.5
20260903231535 95 238 4.0 9.0 0.00 0.00 0.00 46 1010.4
20260903230035 95 266 2.0 11.0 0.00 0.00 0.00 46 1010.4
20260903230024 96 266 3.0 10.0 0.00 0.00 0.00 46 1009.4
20260903224533 95 270 2.0 11.0 0.00 0.00 0.00 46 1010.3
20260903223042 96 264 3.0 10.0 0.00 0.00 0.00 46 1010.4
20260903221537 96 272 3.0 12.0 0.00 0.00 0.00 46 1010.6
20260903220042 96 254 6.0 11.0 0.00 0.00 0.00 44 1010.5
20260903220023 96 254 6.0 10.0 0.00 0.00 0.00 45 1009.6
20260903214541 95 288 7.0 13.0 0.00 0.00 0.00 46 1010.5
20260903213040 96 223 4.0 12.0 0.00 0.00 0.00 46 1010.7
20260903211601 96 232 5.0 12.0 0.00 0.00 0.00 48 1010.8
20260903210035 96 267 4.0 12.0 0.00 0.00 0.00 47 1010.9
20260903210022 96 267 4.0 9.0 0.00 0.00 0.00 48 1010.0
20260903204539 95 291 6.0 13.0 0.00 0.00 0.00 46 1011.2
20260903203037 95 305 4.0 10.0 0.00 0.00 0.00 48 1011.4
20260903201540 95 311 4.0 13.0 0.00 0.00 0.00 48 1011.7
20260903200053 95 327 6.0 11.0 0.00 0.00 0.00 49 1010.6
20260903200038 94 302 6.0 12.0 0.00 0.00 0.00 48 1011.6
20260903194536 94 270 6.0 14.0 0.00 0.00 0.00 48 1012.0
20260903193033 94 291 4.0 11.0 0.00 0.00 0.00 51 1012.1
20260903191538 94 211 5.0 14.0 0.00 0.00 0.00 51 1012.2
20260903190038 93 276 7.0 16.0 0.00 0.00 0.00 51 1012.2
20260903190028 94 261 7.0 11.0 0.00 0.00 0.00 50 1011.1
20260903184537 93 261 5.0 12.0 0.00 0.00 0.00 53 1012.4
20260903183039 93 256 6.0 13.0 0.00 0.00 0.00 51 1012.6
20260903181534 92 272 6.0 16.0 0.00 0.00 0.00 53 1012.7
20260903180039 92 252 4.0 11.0 0.00 0.00 0.00 54 1012.8
20260903180024 93 253 4.0 9.0 0.00 0.00 0.00 54 1011.8
20260903174556 91 264 5.0 16.0 0.00 0.00 0.00 56 1012.9
20260903173039 91 277 6.0 13.0 0.00 0.00 0.00 54 1013.3
20260903171538 90 240 6.0 15.0 0.00 0.00 0.00 56 1013.3
20260903170057 90 278 6.0 14.0 0.00 0.00 0.00 57 1013.5
20260903170023 90 277 6.0 13.0 0.00 0.00 0.00 58 1012.4
20260903164547 89 306 6.0 13.0 0.00 0.00 0.00 58 1013.8
20260903163033 88 234 7.0 15.0 0.00 0.00 0.00 59 1013.8
20260903161536 88 250 6.0 14.0 0.00 0.00 0.00 61 1013.8
20260903160036 87 294 5.0 13.0 0.00 0.00 0.00 61 1013.9
20260903160030 88 252 5.0 12.0 0.00 0.00 0.00 62 1012.8
20260903154536 86 304 7.0 14.0 0.00 0.00 0.00 61 1014.0
20260903153041 86 312 7.0 16.0 0.00 0.00 0.00 63 1014.0
20260903151547 85 259 5.0 14.0 0.00 0.00 0.00 64 1014.1
20260903150037 84 286 5.0 13.0 0.00 0.00 0.00 66 1014.0
20260903150021 85 272 5.0 12.0 0.00 0.00 0.00 67 1012.8
20260903144536 84 269 4.0 13.0 0.00 0.00 0.00 67 1013.9
20260903143032 83 259 6.0 15.0 0.00 0.00 0.00 67 1014.0
20260903141535 82 309 6.0 14.0 0.00 0.00 0.00 69 1014.0